Regional Weather Roundup
Issued by NWS Wakefield, VA

Home | Current Version | Previous Version | Text Only | Print | Product List | Glossary Off
Versions: 1 2 3 4 5 6 7 8 9 10 11 12 13 14 15 16 17 18 19 20 21 22 23 24 25 26 27 28 29 30 31 32 33 34 35 36 37 38 39 40 41 42 43 44 45 46 47 48 49 50

000
ASUS41 KAKQ 232315
RWRAKQ

REGIONAL WEATHER ROUNDUP
NATIONAL WEATHER SERVICE WAKEFIELD VA
700 PM EDT TUE AUG 23 2016

Note: "fair" indicates few or no clouds below 12,000 feet with no
significant weather and/or obstructions to visibility. * = Denotes
station may not report precipitation (e.g., rain,snow,etc.),
thunder or fog.

VAZ042-051-052>054-056-240000-
NORTHERN VIRGINIA

CITY           SKY/WX    TMP DP  RH WIND       PRES   REMARKS
WASH NATIONAL  MOCLDY    81  58  45 S6        30.25F
DULLES         MOCLDY    80  58  46 S8        30.25F
FORT BELVOIR   CLEAR     79  62  56 S2        30.25F
QUANTICO       PTCLDY    80  60  50 SE8       30.26F
FREDERICKSBRG*   N/A     82  63  52 SE5       30.24F
STAFFORD*      CLEAR     79  60  50 E6        30.29F
WARRENTON      CLEAR     80  59  47 E3        30.25F
CULPEPER*      CLEAR     80  66  61 CALM      30.26F
MANASSAS*      CLEAR     81  63  54 SE6       30.25F
LEESBURG*      CLEAR     82  61  47 SW3       30.27S
WINCHESTER     CLEAR     79  63  57 S5        30.26F
FRONT ROYAL*   FAIR      77  64  65 CALM      30.25F
LURAY*         FAIR      79  61  53 S3        30.26S
$$

VAZ048-049-060>072-079>083-240000-
CENTRAL AND SOUTH CENTRAL VIRGINIA

CITY           SKY/WX    TMP DP  RH WIND       PRES   REMARKS
RICHMOND       PTCLDY    80  58  46 E6        30.25F
CHESTERFIELD*  FAIR      81  54  39 E6        30.26F
PETERSBURG*    NOT AVBL
HANOVER        CLEAR     78  65  63 CALM      30.27F
TAPPAHANNOCK*  CLEAR     80  56  44 E7        30.27F
QUINTON*       MOCLDY    80  61  51 NE5       30.25F
CHARLOTTSVILLE CLEAR     82  62  50 S5        30.25F
GORDONSVILLE*  FAIR      77  68  73 CALM      30.25F
ORANGE*          N/A     79  64  61 CALM      30.28S
LOUISA*        CLEAR     82  70  65 CALM      30.25F
BUMPASS*       FAIR      79  66  64 CALM      30.25F
FARMVILLE*     CLEAR     79  66  65 CALM      30.24S
CREWE*         FAIR      80  64  57 CALM      30.25S
FORT PICKETT*  NOT AVBL
CHASE CITY*    FAIR      82  60  46 CALM      30.25S
CLARKSVILLE*   FAIR      82  59  44 SE5       30.24S
SOUTH HILL*    CLEAR     79  64  60 CALM      30.30S
LAWRENCEVILLE* FAIR      80  63  55 E3        30.25S
EMPORIA*       CLEAR     81  61  50 CALM      30.26S
$$

VAZ088>098-240000-
SOUTHEAST VIRGINIA

CITY           SKY/WX    TMP DP  RH WIND       PRES   REMARKS
NORFOLK        CLEAR     76  59  55 E10       30.26S
VIRGINIA BEACH PTCLDY    81  57  43 NE7       30.26S
NORFOLK NAVAL  CLEAR     77  58  51 E9        30.28S
WEST POINT*    CLEAR     78  57  48 NE6       30.27F
SALUDA*        FAIR      78  58  50 E3        30.26S
NEWPORT NEWS   CLEAR     78  59  51 E5        30.26S
LANGLEY AFB    CLEAR     77  61  56 E7        30.26S
FORT EUSTIS    CLEAR     83  56  40 E6        30.24S
WILLIAMSBURG*  CLEAR     82  61  47 E5        30.27S
HR EXEC AP*    FAIR      79  55  44 NE7       30.28S
FRANKLIN*      CLEAR     79  59  49 NE6       30.26S
US460-WAKEFLD  PTCLDY    77  60  55 VRB3      30.25S
$$

VAZ020-022-025-037-045-240000-
WEST CENTRAL AND SOUTHWEST VIRGINIA

CITY           SKY/WX    TMP DP  RH WIND       PRES   REMARKS
STAUNTON*      SUNNY     77  62  59 S5        30.29F
WAYNESBORO*    FAIR      76  62  62 E6        30.29S
HOT SPRINGS VA SUNNY     69  59  69 S5        30.38F
LYNCHBURG      MOSUNNY   79  63  57 E5        30.28S
DANVILLE       SUNNY     82  63  52 CALM      30.25S
SOUTH BOSTON*  MOCLDY    83  62  48 CALM      30.25R
MARTINSVILLE   SUNNY     79  65  62 CALM      30.28F
ROANOKE        PTSUNNY   79  63  57 SE8       30.28F
BLACKSBURG     PTSUNNY   77  63  62 E6        30.34F
DUBLIN*        SUNNY     80  60  49 S5        30.32S
MARION*        CLOUDY    77  63  62 CALM      30.35R
HILLSVILLE*    SUNNY     73  60  63 S3        30.33F
RICHLANDS*     FAIR      76  62  60 W3        30.32S
WISE*          MOSUNNY   75  52  43 CALM      30.34R
ABINGDON*      MOSUNNY   81  62  51 N5        30.29R
$$

MDZ021>025-VAZ099-100-240000-
SOUTHERN MARYLAND AND THE DELMARVA PENINSULA

CITY           SKY/WX    TMP DP  RH WIND       PRES   REMARKS
PATUXENT RIVER PTCLDY    77  57  50 E5        30.26F
BAY BRIDGE APT CLEAR     81  57  44 SE5       30.26F
LEONARDTOWN    CLEAR     75  59  57 CALM      30.28S
DOVER          CLEAR     77  65  67 E2        30.25F
GEORGETOWN     CLEAR     75  56  51 E5        30.27F
EASTON         PTCLDY    79  64  61 CALM      30.30F
CAMBRIDGE      CLEAR     75  61  60 CALM      30.26F
SALISBURY      CLEAR     75  58  55 SE6       30.27S
OCEAN CITY     CLEAR     74  58  57 E7        30.27F
WALLOPS ISLAND CLEAR     75  56  51 E8        30.28S
ACCOMACK*      CLEAR     75  54  48 E7        30.27F
$$

NCZ012>017-030>032-240000-
NORTH CENTRAL AND EASTERN NORTH CAROLINA

CITY           SKY/WX    TMP DP  RH WIND       PRES   REMARKS
ROANOKE RAPIDS FAIR      79  63  57 CALM      30.25R
RALEIGH        MOCLDY    83  59  44 E7        30.24S
ELIZABETH CITY CLEAR     77  58  51 NE13      30.26S
AHOSKIE*       CLEAR     79  62  56 NE3       30.25R
EDENTON*       CLEAR     79  60  52 E3        30.26R
CURRITUCK*       N/A     78  57  48 NE9       30.27S
KILL DEVIL HLS CLEAR     78  62  58 NE7       30.25S
MANTEO         CLEAR     76  57  50 NE12      30.26S
CAPE HATTERAS  CLEAR     78  58  49 NE9G21    30.24S
TARBORO*       FAIR      81  67  61 CALM      30.25S
GOLDSBORO      CLEAR     84  64  49 E10       30.21S
WASHINGTON     CLEAR     78  64  62 NE6       30.25R
GREENVILLE     PTCLDY    81  64  57 E7        30.26R
NEW BERN       CLOUDY    80  65  59 E6        30.25R
WILMINGTON     CLEAR     82  65  56 E10       30.23R
$$

VAZ048-240000-
ELSEWHERE

CITY           SKY/WX    TMP DP  RH WIND       PRES   REMARKS
HARRISBURG PA  PTCLDY    78  68  71 SW3       30.24F
BALTIMORE      PTCLDY    77  59  53 SE6       30.25F
ANNAPOLIS      CLEAR     79  58  48 SE8       30.26F
ANDREWS AFB    CLEAR     77  60  56 E9        30.25F
PHILADELPHIA   PTCLDY    81  53  37 NW9       30.26S
HENDERSON NC   CLEAR     80  58  47 CALM      30.25S
GREENSBORO     PTSUNNY   82  60  47 E7        30.25S
ROCKY MOUNT    CLEAR     83  63  50 NE5       30.24R
$$

VAZ100-240000-
MARINE

STATION/POSITION TIME  TEMP    WIND        PRES    WAVE   SWELL
                       AIR SEA DIR/SP/G            HT/PER HT/PER
                 (UTC) (F)     (DEG/KT/KT) (MB)    (FT/S) (FT/S)
BRANDYWINE LGT   2200   74                   N/A
CAPE MAY NJ      2200   74 76              1024.9F
LEWES DE         2200   75 77              1025.2F
OCEAN-CITY-INLET 2200   76 74              1025.8F
WACHAPREAGUE VA  2200   76 83              1025.2F
THOMAS POINT MD  2300   78 83  140/  5/  6 1026.0F
GOOSES REEF MD   2200   80 85   90/  2/  4 1025.5F   0
COVE POINT MD    2200   78                 1025.5F
SOLOMONS ISLAND  2200   79 85                N/A
BISHOPS HEAD MD  2200   78 82              1025.4F
PINEY POINT MD   2200          160/  4/  6   N/A
POTOMAC MD       2200   80 84   80/  4/  6 1024.1F   0
CAMBRIDGE MD     2200   80 84              1024.3F
LEWISETTA VA     2200   78 82              1024.7F
RAPPAHANNOCK LGT 2200                      1025.6F
STINGRAY PT      2200   80 84  360/  6/  8 1025.5F   1
YORKTOWN VA      2200   78 83              1024.4F
JAMESTOWN VA     2200   81 86  100/  8/ 12   N/A     0
DOMINION TERM VA 2200   80                 1024.9F
KIPTOPEKE VA     2200      78                N/A
CHES BAY BRIDGE  2200   76 77              1024.8F
CAPE HENRY VA    2200   76                   N/A
WILLOUBY STN VA  2200   77                   N/A
CAPE HENRY BUOY  2212      80                N/A     3/ 5
1ST LANDING BUOY 2200   76 77   80/ 10/ 12 1024.8F   1/ 3
CAPE CHARLES BUO 2226      78                N/A     2/ 5
OFFSHORE WE BUOY 2221      80                N/A     3/ 6
64NM E OF VA BCH 2250   77 82   30/ 14/ 17 1024.3F   3/ 6   2/ 8
DUCK PIER NC     2200   77 78              1023.9F
44100 DUCK FRF   2205      80                N/A     4/ 6
44056 DUCK FRF   2211      78                N/A     3/ 5
OREGON INLET NC  2200   78 79              1024.3F
HATTERAS NC      2200   79 80              1023.7F
DIAMOND SHLS NC  2250   80 85   30/ 17/ 23 1023.6R   4/ 6   2/ 8
CAPE LOOKOUT NC  2300   80      50/ 16/ 18 1023.6R
$$



USA.gov is the U.S. government's official web portal to all federal, state and local government web resources and services.